Regional Weather Roundup
Issued by NWS

Home | Current Version | Previous Version | Text Only | Print | Product List | Glossary Off
Versions: 1 2 3 4 5 6 7 8 9 10 11 12 13 14 15 16 17 18 19 20 21 22 23 24 25 26 27 28 29 30 31 32 33 34 35 36 37 38 39 40 41 42 43 44 45 46 47 48 49 50

507
ASUS43 KLSX 270807
RWRMO

WEATHER SUMMARY FOR MISSOURI
NATIONAL WEATHER SERVICE SPRINGFIELD MO
300 AM CDT WED JUL 27 2016

NOTE: "FAIR" INDICATES FEW OR NO CLOUDS BELOW 12,000 FEET WITH NO
       SIGNIFICANT WEATHER AND/OR OBSTRUCTIONS TO VISIBILITY.
       CURRENT SKY AND/OR WEATHER CONDITIONS ARE NOT AVAILABLE FOR
       CHILLICOTHE AND FARMINGTON.

MOZ001>031-035>038-043-044-053-054-270900-
...NORTHERN AND WESTERN MISSOURI...

CITY           SKY/WX    TMP DP  RH WIND       PRES   REMARKS
KANSAS CTY INT CLEAR     71  66  84 NE6       30.00R
KANSAS C DTWN  CLEAR     74  67  78 NE6       29.98S
LEE`S SUMMIT   CLEAR     73  68  84 E6        29.99F
ST JOSEPH      CLEAR     67  64  90 CALM      30.01R
CHILLICOTHE      N/A     68  66  93 NW3       30.01S
KIRKSVILLE     CLEAR     64  63  96 CALM      30.01S

$$
MOZ066>068-077>081-088>096-101>105-270900-
...SOUTHWEST MISSOURI...

CITY           SKY/WX    TMP DP  RH WIND       PRES   REMARKS
SPRINGFIELD    MOCLDY    73  70  90 CALM      29.99R
JOPLIN         FOG       71  70  96 CALM      29.96F VSB 1/2
BRANSON        FOG       73  73 100 CALM      30.00S VSB<1/4

$$
MOZ032>034-039>042-045>050-055>058-069>072-270900-
...CENTRAL MISSOURI...

CITY           SKY/WX    TMP DP  RH WIND       PRES   REMARKS
COLUMBIA       CLEAR     73  72  96 CALM      29.98S
JEFFERSON CITY PTCLDY    73  72  96 CALM      29.97S
ROLLA          FOG       70  70 100 CALM      29.98S VSB 1
SEDALIA        CLEAR     73  70  90 CALM      29.99S
WHITEMAN AFB   MOCLDY    72  72 100 NE2       29.97S
OSAGE BEACH    PTCLDY    71  71 100 CALM      29.99S FOG

$$
MOZ051-052-059>065-270900-
...EAST CENTRAL MISSOURI...

CITY           SKY/WX    TMP DP  RH WIND       PRES   REMARKS
ST LOUIS INTL  MOCLDY    78  74  87 E5        29.97F
SPIRIT OF STL  PTCLDY    75  74  96 CALM      29.96S
ST CHARLES     CLOUDY    76  76 100 CALM      29.96S

$$
MOZ072>076-082>087-097>100-106>115-270900-
...SOUTH CENTRAL AND SOUTHEAST MISSOURI...

CITY           SKY/WX    TMP DP  RH WIND       PRES   REMARKS
CAPE GIRARDEAU CLEAR     74  73  97 CALM      29.96F
FARMINGTON     FOG       72  71  97 CALM      30.00S VSB 1/4
POPLAR BLUFF   PTCLDY    74  72  93 CALM      29.95F
WEST PLAINS    CLEAR     72  69  90 NE3       30.01S

$$



USA.gov is the U.S. government's official web portal to all federal, state and local government web resources and services.